Probability
0 0 0 0 0 0 0 0 0 0 0 0 0 0 0 0 0 0 0 0 0 0 0 0 0 0 0 0 0 0 0 0 0 0 0 0 0 0 0 0 0 0 0 0
0 0 0 0 0 0 0 0 0 0 0 0 0 0 0 0 0 0 0 0 0 0 0 0 0 0 0 0 0 0 0 0 0 0 0 0 0 0 0 0 0 0 0 0
0 0 0 0 0 0 0 0 0 0 0 0 0 0 0 0 0 0 0 0 0 0 0 0 0 0 0 0 0 0 0 0 0 0 0 0 0 0 0 0 0 0 0 0
0 0 0 0 0 0 0 0 0 0 0 0 0 0 0 0 0 0 0 0 0 0 0 0 0 0 0 0 0 0 0 0 0 0 0 0 0 0 0 0 0 0 0 0
0 0 0 0 0 0 0 0 0 0 0 0 0 0 0 0 0 0 0 0 0 0 0 0 0 0 0 0 0 0 0 0 0 0 0 0 0 0 0 0 0 0 0 0
0 0 0 0 0 0 0 0 0 0 0 0 0 0 0 0 0 0 0 0 0 0 0 0 0 0 0 0 0 0 0 0 0 0 0 0 0 0 0 0 0 0 0 0
0 0 0 0 0 0 0 0 0 0 0 0 0 0 0 0 0 0 0 0 0 0 0 0 0 0 0 0 0 0 0 0 0 0 0 0 0 0 0 0 0 0 0 0
0 0 0 0 0 0 0 0 0 0 0 0 0 0 0 0 0 0 0 0 0 0 0 0 0 0 0 0 0 0 0 0 0 0 0 0 0 0 0 0 0 0 0 0
0 0 0 0 0 0 0 0 0 0 0 0 0 0 0 0 0 0 0 0 0 0 0 0 0 0 0 0 0 0 0 0 0 0 0 0 0 0 0 0 0 0 0 0
0 0 0 0 0 0 0 0 0 0 0 0 0 0 0 0 0 0 0 0 0 0 0 0 0 0 0 0 0 0 0 0 0 0 0 0 0 0 0 0 0 0 0 0
0 0 0 0 0 0 0 0 0 0 0 0 0 0 0 0 0 0 0 0 0 0 0 0 0 0 0 0 0 0 0 0 0 0 0 0 0 0 0 0 0 0 0 0
0 0 0 0 0 0 0 0 0 0 0 0 0 0 0 0 0 0 0 0 0 0 0 0 0 0 0 0 0 0 0 0 0 0 0 0 0 0 0 0 0 0 0 0
0 0 0 0 0 0 0 0 0 0 0 0 0 0 0 0 0 0 0 0 0 0 0 0 0 0 0 0 0 0 0 0 0 0 0 0 0 0 0 0 0 0 0 0
0 0 0 0 0 0 0 0 0 0 0 0 0 0 0 0 0 0 0 0 0 0 0 0 0 0 0 0 0 0 0 0 0 0 0 0 0 0 0 0 0 0 0 0
0 0 0 0 0 0 0 0 0 0 0 0 0 0 0 0 0 0 0 0 0 0 0 0 0 0 0 0 0 0 0 0 0 0 0 0 0 0 0 0 0 0 0 0
0 0 0 0 0 0 0 0 0 0 0 0 0 0 0 0 0 0 0 0 0 0 0 0 0 0 0 0 0 0 0 0 0 0 0 0 0 0 0 0 0 0 0 0
0 0 0 0 0 0 0 0 0 0 0 0 0 0 0 0 0 0 0 0 0 0 0 0 0 0 0 0 0 0 0 0 0 0 0 0 0 0 0 0 0 0 0 0
0 0 0 0 0 0 0 0 0 0 0 0 0 0 0 0 0 0 0 0 0 0 0 0 0 0 0 0 0 0 0 0 0 0 0 0 0 0 0 0 0 0 0 0
0 0 0 0 0 0 0 0 0 0 0 0 0 0 0 0 0 0 0 0 0 0 0 0 0 0 0 0 0 0 0 0 0 0 0 0 0 0 0 0 0 0 0 0
0 0 0 0 0 0 0 0 0 0 0 0 0 0 0 0 0 0 0 0 0 0 0 0 0 0 0 0 0 0 0 0 0 0 0 0 0 0 0 0 0 0 0 0
0 0 0 0 0 0 0 0 0 0 0 0 0 0 0 0 0 0 0 0 0 0 0 0 0 0 0 0 0 0 0 0 0 0 0 0 0 0 0 0 0 0 0 0
0 0 0 0 0 0 0 0 0 0 0 0 0 0 0 0 0 0 0 0 0 0 0 0 0 0 0 0 0 0 0 0 0 0 0 0 0 0 0 0 0 0 0 0
0 0 0 0 0 0 0 0 0 0 0 0 0 0 0 0 0 0 0 0 0 0 0 0 0 0 0 0 0 0 0 0 0 0 0 0 0 0 0 0 0 0 0 0
0 0 0 0 0 0 0 0 0 0 0 0 0 0 0 0 0 0 0 0 0 0 0 0 0 0 0 0 0 0 0 0 0 0 0 0 0 0 0 0 0 0 0 0
0 0 0 0 0 0 0 0 0 0 0 0 0 0 0 0 0 0 0 0 0 0 0 0 0 0 0 0 0 0 0 0 0 0 0 0 0 0 0 0 0 0 0 0
0 0 0 0 0 0 0 0 0 0 0 0 0 0 0 0 0 0 0 0 0 0 0 0 0 0 0 0 0 0 0 0 0 0 0 0 0 0 0 0 0 0 0 0
Wind_Speed
1 1 5 6 6 4 4 4 7 9 4 5 12 16 22 10 13 18 16 16 20 19 12 11 10 9 7 7 6 4 2 2 2 1 2 3 4 4 3 4 5 5 6 7
2 8 7 3 3 3 3 3 8 9 1 6 14 18 21 18 15 17 19 22 23 19 14 15 12 8 8 7 6 5 4 3 2 1 2 3 4 5 4 4 5 5 5 7
8 6 4 5 4 4 4 6 6 6 5 4 9 14 11 12 8 8 12 17 22 23 20 16 13 10 8 8 7 6 4 3 2 2 2 2 3 4 3 3 4 4 5 7
9 5 5 4 6 7 6 6 3 2 3 4 4 15 6 7 9 9 10 13 18 21 22 21 17 11 9 8 7 6 3 3 3 2 1 1 2 4 4 4 5 6 6 7
8 6 5 6 7 8 5 3 2 1 2 5 5 9 8 2 8 16 10 13 16 19 22 21 19 14 10 8 7 6 3 3 3 2 2 2 4 5 5 5 6 7 7 7
5 2 5 5 2 3 3 2 3 3 1 9 8 10 9 7 10 10 8 7 11 15 18 18 16 13 10 8 6 5 2 3 3 3 3 3 6 7 7 9 8 7 7 7
4 3 2 3 3 1 3 3 3 4 3 10 3 7 14 13 12 10 8 4 7 13 16 19 20 16 13 10 8 6 3 3 3 4 4 4 6 7 7 9 8 9 9 8
6 10 5 5 6 6 6 7 8 6 8 10 4 14 11 12 10 5 5 6 7 11 16 20 20 17 13 11 9 6 4 3 3 4 5 5 6 5 6 8 9 10 10 10
10 9 2 1 1 4 5 7 4 2 2 9 13 14 11 7 9 8 7 8 10 12 16 18 17 15 12 11 9 6 4 3 3 4 5 5 5 6 7 9 10 9 11 11
6 5 1 1 1 1 2 3 4 3 5 9 22 21 15 11 10 10 7 11 10 10 13 16 17 15 11 9 7 6 4 2 3 4 4 5 6 7 8 10 11 12 12 14
8 7 5 4 10 12 8 5 4 5 6 7 16 23 5 8 10 10 11 11 10 13 15 16 16 15 13 10 8 6 4 1 2 3 5 6 7 8 9 10 12 13 14 15
7 8 11 9 3 1 4 9 13 12 13 7 6 33 3 5 7 8 8 10 9 12 13 15 15 13 12 11 9 6 3 1 2 3 5 6 8 9 10 11 12 14 14 15
12 7 8 10 5 3 7 9 9 6 11 13 14 33 7 5 9 9 10 10 9 10 12 14 15 15 14 11 8 6 4 3 3 3 4 6 8 9 10 12 13 14 15 15
15 13 18 24 17 10 9 12 18 21 19 22 35 34 35 18 25 25 16 12 12 12 14 17 16 14 12 10 8 7 5 2 2 3 4 7 9 10 11 12 13 14 14 15
7 14 21 21 19 7 8 15 17 24 29 27 31 32 39 25 32 30 22 12 9 11 15 18 18 14 12 9 6 4 3 1 1 4 6 8 10 11 12 13 14 14 15 14
3 13 15 23 16 6 8 28 21 28 25 27 29 39 35 28 29 28 25 11 11 14 18 18 17 15 12 9 7 5 2 2 4 5 6 9 12 13 14 15 14 15 16 15
8 7 10 23 6 9 17 25 26 35 29 26 31 39 29 28 27 24 17 11 14 15 16 17 18 16 12 9 8 4 3 4 4 4 6 8 10 12 13 14 14 14 16 16
10 9 13 12 9 18 30 11 13 21 32 28 30 30 28 29 22 11 11 13 14 13 15 17 16 13 10 9 8 6 4 2 2 3 5 8 9 11 13 14 15 14 14 15
19 17 14 16 22 28 26 11 10 11 30 21 18 28 29 19 8 20 14 13 13 15 16 16 15 14 13 10 8 6 4 2 2 3 6 7 9 11 13 14 15 14 15 15
18 24 23 20 22 29 36 14 10 4 30 26 22 26 21 7 7 20 7 9 9 12 14 16 15 15 13 10 9 7 5 2 1 4 6 7 8 8 11 14 14 14 14 15
11 17 24 30 32 23 20 10 11 17 46 14 19 22 15 15 16 5 7 8 13 14 16 17 16 13 12 11 9 8 6 4 3 2 4 5 7 8 10 12 14 13 13 14
21 15 19 21 25 26 15 15 24 41 35 12 9 10 13 12 5 7 10 13 16 18 18 17 15 13 12 11 10 9 7 4 1 2 4 5 6 7 8 11 13 12 12 13
27 28 21 20 17 12 17 29 37 39 33 20 10 9 11 11 10 12 13 16 17 18 18 16 16 15 11 9 8 8 6 3 2 4 4 4 8 7 8 9 11 11 10 11
22 26 27 25 26 25 25 29 30 27 29 20 13 13 17 15 16 17 17 17 17 16 16 15 15 14 11 8 6 5 5 3 3 3 4 5 7 9 8 7 8 9 10 11
24 20 27 29 30 32 38 35 30 17 12 16 14 14 18 16 17 20 19 19 18 16 15 15 14 14 13 11 8 6 4 3 3 3 4 4 5 6 9 8 7 8 9 14
22 26 25 28 31 29 35 36 26 21 24 24 19 14 15 18 20 21 20 20 20 18 17 15 14 14 13 12 10 7 4 3 3 5 5 4 5 5 6 7 10 13 17 22
Wind_Direction
96 183 217 218 197 183 172 210 252 259 242 252 252 257 273 252 213 226 219 206 209 208 192 187 185 176 163 169 169 174 187 240 245 277 312 302 284 280 279 299 324 335 333 331
106 239 213 154 155 163 164 226 261 275 284 241 267 266 268 259 233 221 216 211 211 202 191 190 185 178 175 175 178 189 209 235 234 226 251 261 273 281 291 304 313 316 311 307
190 224 147 152 174 179 208 202 230 262 320 276 293 277 265 275 262 244 220 215 210 203 197 190 190 190 184 183 188 196 217 255 249 236 261 280 287 287 274 273 287 287 291 287
230 218 164 178 211 175 242 220 212 282 321 294 336 291 248 267 282 264 238 215 210 203 196 189 187 189 190 193 188 196 213 252 243 236 263 286 269 269 274 293 289 296 289 280
222 182 173 199 213 174 209 133 130 149 234 281 233 247 264 306 269 267 251 225 214 202 195 189 185 185 189 183 183 193 217 265 261 256 263 283 275 263 274 279 291 293 283 276
242 205 189 197 146 156 140 99 66 61 46 265 221 224 253 206 220 247 255 231 211 199 197 191 183 179 184 177 177 187 223 264 274 281 291 299 288 291 301 313 313 302 296 291
243 220 203 156 130 140 125 106 327 316 247 250 195 228 250 232 223 223 247 263 223 194 189 189 186 183 181 177 178 184 213 262 291 305 303 295 282 287 297 302 303 301 298 290
222 253 201 183 181 174 170 160 185 222 254 283 244 246 257 237 247 256 252 264 245 195 193 198 192 182 180 178 178 183 203 255 294 302 296 290 290 290 288 291 297 295 289 286
201 242 157 146 137 129 175 195 184 166 267 280 266 268 279 276 279 268 261 260 242 203 198 198 188 182 180 177 176 176 191 244 280 291 296 298 286 285 297 303 297 287 287 289
200 258 178 165 149 86 181 170 136 176 225 263 271 272 260 241 244 249 237 241 236 203 199 197 187 181 178 172 162 161 179 236 285 297 292 294 298 305 306 301 291 288 289 289
157 198 230 187 208 181 156 189 176 199 209 219 274 273 202 228 204 222 229 234 222 201 197 194 189 178 170 161 163 172 180 222 291 291 285 295 310 313 304 296 295 295 293 292
170 167 226 225 196 175 193 185 172 205 229 215 241 267 234 208 219 236 236 237 224 204 194 191 185 169 167 169 173 172 167 203 260 269 286 306 310 308 302 299 301 301 298 293
164 171 229 253 235 197 227 206 197 218 232 217 218 257 248 211 251 239 229 231 222 201 187 184 181 178 174 170 169 167 167 206 228 258 291 309 310 309 308 308 307 303 299 295
170 189 206 230 231 176 199 213 210 213 227 233 236 254 265 263 274 271 258 239 220 199 190 187 187 181 169 165 169 174 179 200 249 291 320 316 315 316 311 309 308 302 300 301
175 228 234 245 249 193 213 229 215 216 225 227 245 248 258 263 268 277 282 264 219 194 195 194 187 174 168 168 164 160 156 191 329 347 334 320 317 313 311 310 306 308 310 307
191 247 250 255 253 183 242 253 236 233 230 236 252 259 259 265 275 279 280 262 214 203 204 195 182 168 166 160 153 153 145 31 15 355 333 322 317 315 314 313 318 319 314 308
184 210 239 253 214 121 239 244 233 246 235 226 239 252 269 269 265 264 263 221 215 210 200 185 177 165 155 143 137 127 81 39 6 331 315 308 312 313 317 319 321 318 310 305
194 203 227 236 148 218 243 255 212 234 250 237 243 259 260 261 271 261 227 213 213 199 184 179 167 142 128 121 117 117 101 80 354 320 302 307 317 318 322 319 317 311 307 311
223 216 225 220 225 244 266 229 146 213 263 246 217 242 252 260 306 276 234 207 204 187 175 165 150 131 126 126 127 121 116 93 358 316 316 322 326 324 320 312 308 312 313 310
217 224 235 232 237 238 250 244 130 162 265 247 206 235 241 176 236 263 217 173 155 146 143 138 130 124 124 128 129 129 132 148 268 314 325 334 328 318 306 300 304 310 310 307
190 211 225 233 238 239 243 153 141 215 254 245 206 225 216 187 218 211 117 120 127 129 132 127 122 124 128 135 142 146 159 187 229 290 324 332 321 305 295 298 301 307 311 310
206 204 216 228 239 244 207 168 212 238 251 250 210 199 193 206 180 140 140 140 135 133 134 132 129 131 138 148 153 159 171 179 185 354 347 333 305 293 301 300 299 308 313 310
222 216 216 208 217 216 200 218 228 237 244 235 200 193 194 189 182 162 155 151 149 145 143 141 137 136 144 153 159 162 157 140 68 23 357 323 301 305 306 300 303 314 317 314
226 229 235 239 237 227 226 229 232 233 235 228 195 187 183 188 177 165 158 155 151 150 145 141 137 139 144 149 141 132 127 99 74 45 23 344 318 316 311 306 310 316 320 316
226 225 227 237 242 247 248 243 241 240 229 215 198 186 192 182 179 168 161 159 156 151 146 147 148 144 147 153 145 135 126 111 101 78 46 351 315 304 305 314 317 319 321 325
227 229 223 225 228 228 240 247 244 226 217 213 202 196 194 187 179 168 163 161 157 153 148 149 146 143 148 151 143 135 126 119 96 72 47 347 316 307 310 319 321 336 344 343